Regional Weather Roundup
Issued by NWS Binghamton, NY

Home | Current Version | Previous Version | Text Only | Print | Product List | Glossary On
Versions: 1 2 3 4 5 6 7 8 9 10 11 12 13 14 15 16 17 18 19 20 21 22 23 24 25 26 27 28 29 30 31 32 33 34 35 36 37 38 39 40 41 42 43 44 45 46 47 48 49 50
000
ASUS41 KBGM 250610
RWRBGM

REGIONAL WEATHER ROUNDUP
NATIONAL WEATHER SERVICE BINGHAMTON NY
200 AM EDT WED MAY 25 2016

Note: "fair" indicates few or no clouds below 12,000 feet with no
significant weather and/or obstructions to visibility.

* = Station(s) that does not report precipitation, such as rain,
snow, etc, also no thunder or fog.

NYZ009-015>018-022>025-036-037-044>046-055>057-062-250700
...Central New York...

CITY           SKY/WX    TMP DP  RH WIND       PRES   REMARKS
Binghamton     CLEAR     57  40  52 W6        30.04S
Cortland       FAIR      46  41  81 CALM      30.04S
Dansville      CLEAR     54  44  69 SE7       30.04F
Elmira         CLEAR     54  44  69 SW6       30.04S
Ithaca         NOT AVBL
Hamilton       CLEAR     46  39  76 CALM      30.02S
Hornell        CLEAR     48  45  87 CALM      30.09F
Monticello     CLEAR     48  46  93 CALM      30.05R
Norwich        CLEAR     46  39  76 CALM      30.04S
Oneonta        CLEAR     54  28  37 CALM      30.03S
Penn Yan       CLEAR     65  37  35 S7        30.02S
Rome           CLEAR     48  40  73 CALM      30.01R
Sidney         CLEAR     50  46  87 CALM      30.04S
Syracuse       PTCLDY    51  43  74 CALM      29.98S
$$

PAZ038>040-043-044-047-048-072-250700
...Northeast Pennsylvania...

CITY           SKY/WX    TMP DP  RH WIND       PRES   REMARKS
Hazleton       CLEAR     50  43  76 CALM      30.10R
Scranton       CLEAR     54  44  69 SE3       30.04R
$$
&&
KEY
WCI = Wind Chill Index
VSB = Visibility
HX  = Heat Index
$$



USA.gov is the U.S. government's official web portal to all federal, state and local government web resources and services.